User: anonymous   Login
Location: Fort Wayne
(41.1310°N, 85.1290°W)
Time: 02:46:44
(UTC-04:00)
Language:

OAO 2 Rocket - Orbit

View from above orbital plane
View from above orbital plane
View from above satellite
View from above satellite

Ground track
Ground track

The orbit data is extracted from the following two-line orbital elements,

1  3598U 68110B   18114.62356877 +.00000092 +00000-0 +25454-4 0  9995
2  3598 034.9950 018.5008 0050071 234.4421 125.1597 14.54368528590934
Epoch (UTC): 24 April 2018 14:57:56
Eccentricity: 0.0050071
inclination: 34.9950°
perigee height: 676 km
apogee height: 747 km
right ascension of ascending node: 18.5008°
argument of perigee: 234.4421°
revolutions per day: 14.54368528
mean anomaly at epoch: 125.1597°
orbit number at epoch: 59093

The dashed part of the orbit path shows where the satellite is in the earth's shadow,  

DLR